User: anonymous   Login
Location: Dover
(39.1580°N, 75.5250°W)
Time: 00:14:38
(UTC-04:00)
Language:

SeaSat 1 - Orbit

View from above orbital plane
View from above orbital plane
View from above satellite
View from above satellite

Ground track
Ground track

The orbit data is extracted from the following two-line orbital elements,

1 10967U 78064A   15142.80713412  .00000154  00000-0  86093-4 0  9997
2 10967 107.9961 159.7253 0001218 244.8827 115.2191 14.43387245937456
Epoch (UTC): 22 May 2015 19:22:16
Eccentricity: 0.0001218
inclination: 107.9961°
perigee height: 746 km
apogee height: 748 km
right ascension of ascending node: 159.7253°
argument of perigee: 244.8827°
revolutions per day: 14.43387245
mean anomaly at epoch: 115.2191°
orbit number at epoch: 93745

The dashed part of the orbit path shows where the satellite is in the earth's shadow,  

DLR